date,time,SUV Intensity [MED/Hr],UV Index,Daily total [MED],Since Last [MED]
26/05/2023,00:02:12,-0.001,0.0,0.0,0.0
26/05/2023,00:03:12,0.000,0.0,0.0,0.0
26/05/2023,00:04:13,0.000,0.0,0.0,0.0
26/05/2023,00:05:13,0.001,0.0,0.0,0.0
26/05/2023,00:06:12,0.000,0.0,0.0,0.0
26/05/2023,00:07:12,0.001,0.0,0.0,0.0
26/05/2023,00:08:12,0.000,0.0,0.0,0.0
26/05/2023,00:09:13,0.000,0.0,0.0,0.0
26/05/2023,00:10:12,0.001,0.0,0.0,0.0
26/05/2023,00:11:12,-0.001,0.0,0.0,0.0
26/05/2023,00:12:12,0.001,0.0,0.0,0.0
26/05/2023,00:13:12,0.000,0.0,0.0,0.0
26/05/2023,00:14:13,0.000,0.0,0.0,0.0
26/05/2023,00:15:13,0.000,0.0,0.0,0.0
26/05/2023,00:16:13,0.001,0.0,0.0,0.0
26/05/2023,00:17:12,-0.001,0.0,0.0,0.0
26/05/2023,00:18:12,0.000,0.0,0.0,0.0
26/05/2023,00:19:12,0.000,0.0,0.0,0.0
26/05/2023,00:20:13,0.001,0.0,0.0,0.0
26/05/2023,00:21:13,0.001,0.0,0.0,0.0
26/05/2023,00:22:13,0.000,0.0,0.0,0.0
26/05/2023,00:23:13,0.000,0.0,0.0,0.0
26/05/2023,00:24:13,-0.001,0.0,0.0,0.0
26/05/2023,00:25:13,0.001,0.0,0.0,0.0
26/05/2023,00:26:12,0.001,0.0,0.0,0.0
26/05/2023,00:27:12,-0.000,0.0,0.0,0.0
26/05/2023,00:28:12,0.001,0.0,0.0,0.0
26/05/2023,00:29:13,0.000,0.0,0.0,0.0
26/05/2023,00:30:13,0.000,0.0,0.0,0.0
26/05/2023,00:31:12,0.000,0.0,0.0,0.0
26/05/2023,00:32:12,0.000,0.0,0.0,0.0
26/05/2023,00:33:12,0.000,0.0,0.0,0.0
26/05/2023,00:34:12,0.000,0.0,0.0,0.0
26/05/2023,00:35:13,0.000,0.0,0.0,0.0
26/05/2023,00:36:13,0.000,0.0,0.0,0.0
26/05/2023,00:37:13,0.001,0.0,0.0,0.0
26/05/2023,00:38:12,0.000,0.0,0.0,0.0
26/05/2023,00:39:12,0.000,0.0,0.0,0.0
26/05/2023,00:40:13,0.000,0.0,0.0,0.0
26/05/2023,00:41:13,0.000,0.0,0.0,0.0
26/05/2023,00:42:12,0.000,0.0,0.0,0.0
26/05/2023,00:43:12,0.000,0.0,0.0,0.0
26/05/2023,00:44:12,0.001,0.0,0.0,0.0
26/05/2023,00:45:13,0.000,0.0,0.0,0.0
26/05/2023,00:46:12,0.001,0.0,0.0,0.0
26/05/2023,00:47:13,0.000,0.0,0.0,0.0
26/05/2023,00:48:13,0.000,0.0,0.0,0.0
26/05/2023,00:49:13,0.000,0.0,0.0,0.0
26/05/2023,00:50:12,0.001,0.0,0.0,0.0
26/05/2023,00:51:12,0.001,0.0,0.0,0.0
26/05/2023,00:52:13,0.000,0.0,0.0,0.0
26/05/2023,00:53:13,0.000,0.0,0.0,0.0
26/05/2023,00:54:12,0.000,0.0,0.0,0.0
26/05/2023,00:55:13,0.000,0.0,0.0,0.0
26/05/2023,00:56:13,0.000,0.0,0.0,0.0
26/05/2023,00:57:12,0.000,0.0,0.0,0.0
26/05/2023,00:58:12,0.000,0.0,0.0,0.0
26/05/2023,00:59:13,0.000,0.0,0.0,0.0
26/05/2023,01:00:13,0.000,0.0,0.0,0.0
26/05/2023,01:01:12,0.000,0.0,0.0,0.0
26/05/2023,01:02:12,0.000,0.0,0.0,0.0
26/05/2023,01:03:12,0.000,0.0,0.0,0.0
26/05/2023,01:04:12,0.000,0.0,0.0,0.0
26/05/2023,01:05:13,0.000,0.0,0.0,0.0
26/05/2023,01:06:13,0.000,0.0,0.0,0.0
26/05/2023,01:07:13,0.001,0.0,0.0,0.0
26/05/2023,01:08:12,0.001,0.0,0.0,0.0
26/05/2023,01:09:12,0.001,0.0,0.0,0.0
26/05/2023,01:10:12,0.001,0.0,0.0,0.0
26/05/2023,01:11:13,0.001,0.0,0.0,0.0
26/05/2023,01:12:13,0.002,0.0,0.0,0.0
26/05/2023,01:13:13,-0.001,0.0,0.0,0.0
26/05/2023,01:14:12,0.001,0.0,0.0,0.0
26/05/2023,01:15:13,-0.000,0.0,0.0,0.0
26/05/2023,01:16:12,0.000,0.0,0.0,0.0
26/05/2023,01:17:13,0.000,0.0,0.0,0.0
26/05/2023,01:18:13,0.000,0.0,0.0,0.0
26/05/2023,01:19:13,-0.000,0.0,0.0,0.0
26/05/2023,01:20:13,0.000,0.0,0.0,0.0
26/05/2023,01:21:13,0.000,0.0,0.0,0.0
26/05/2023,01:22:13,0.000,0.0,0.0,0.0
26/05/2023,01:23:13,0.001,0.0,0.0,0.0
26/05/2023,01:24:13,0.000,0.0,0.0,0.0
26/05/2023,01:25:13,0.000,0.0,0.0,0.0
26/05/2023,01:26:16,0.000,0.0,0.0,0.0
26/05/2023,01:27:14,0.000,0.0,0.0,0.0
26/05/2023,01:28:13,-0.001,0.0,0.0,0.0
26/05/2023,01:29:13,-0.000,0.0,0.0,0.0
26/05/2023,01:30:13,-0.000,0.0,0.0,0.0
26/05/2023,01:31:12,0.000,0.0,0.0,0.0
26/05/2023,01:32:13,0.001,0.0,0.0,0.0
26/05/2023,01:33:13,0.001,0.0,0.0,0.0
26/05/2023,01:34:12,0.001,0.0,0.0,0.0
26/05/2023,01:35:12,0.000,0.0,0.0,0.0
26/05/2023,01:36:13,0.001,0.0,0.0,0.0
26/05/2023,01:37:13,0.001,0.0,0.0,0.0
26/05/2023,01:38:13,-0.000,0.0,0.0,0.0
26/05/2023,01:39:13,0.000,0.0,0.0,0.0
26/05/2023,01:40:13,-0.000,0.0,0.0,0.0
26/05/2023,01:41:12,0.001,0.0,0.0,0.0
26/05/2023,01:42:11,0.001,0.0,0.0,0.0
26/05/2023,01:43:35,0.001,0.0,0.0,0.0
26/05/2023,01:45:13,-0.000,0.0,0.0,0.0
26/05/2023,01:46:12,0.001,0.0,0.0,0.0
26/05/2023,01:47:12,-0.000,0.0,0.0,0.0
26/05/2023,01:48:12,0.002,0.0,0.0,0.0
26/05/2023,01:49:12,0.001,0.0,0.0,0.0
26/05/2023,01:50:13,0.000,0.0,0.0,0.0
26/05/2023,01:51:13,0.001,0.0,0.0,0.0
26/05/2023,01:52:13,-0.000,0.0,0.0,0.0
26/05/2023,01:53:12,0.001,0.0,0.0,0.0
26/05/2023,01:54:13,0.001,0.0,0.0,0.0
26/05/2023,01:55:12,0.001,0.0,0.0,0.0
26/05/2023,01:56:12,0.001,0.0,0.0,0.0
26/05/2023,01:57:12,0.000,0.0,0.0,0.0
26/05/2023,01:58:13,0.002,0.0,0.0,0.0
26/05/2023,01:59:13,0.001,0.0,0.0,0.0
26/05/2023,02:00:13,0.001,0.0,0.0,0.0
26/05/2023,02:01:12,0.001,0.0,0.0,0.0
26/05/2023,02:02:12,0.002,0.0,0.0,0.0
26/05/2023,02:03:13,0.002,0.0,0.0,0.0
26/05/2023,02:04:12,0.001,0.0,0.0,0.0
26/05/2023,02:05:12,-0.000,0.0,0.0,0.0
26/05/2023,02:06:13,-0.000,0.0,0.0,0.0
26/05/2023,02:07:13,0.001,0.0,0.0,0.0
26/05/2023,02:08:12,0.001,0.0,0.0,0.0
26/05/2023,02:09:12,0.001,0.0,0.0,0.0
26/05/2023,02:10:13,0.001,0.0,0.0,0.0
26/05/2023,02:11:12,0.001,0.0,0.0,0.0
26/05/2023,02:12:12,0.002,0.0,0.0,0.0
26/05/2023,02:13:13,0.001,0.0,0.0,0.0
26/05/2023,02:14:12,0.001,0.0,0.0,0.0
26/05/2023,02:15:13,-0.000,0.0,0.0,0.0
26/05/2023,02:16:11,0.001,0.0,0.0,0.0
26/05/2023,02:17:13,0.001,0.0,0.0,0.0
26/05/2023,02:18:13,0.000,0.0,0.0,0.0
26/05/2023,02:19:13,0.001,0.0,0.0,0.0
26/05/2023,02:20:13,0.000,0.0,0.0,0.0
26/05/2023,02:21:13,0.001,0.0,0.0,0.0
26/05/2023,02:22:12,0.001,0.0,0.0,0.0
26/05/2023,02:23:12,0.000,0.0,0.0,0.0
26/05/2023,02:24:13,0.001,0.0,0.0,0.0
26/05/2023,02:25:13,0.001,0.0,0.0,0.0
26/05/2023,02:26:12,0.001,0.0,0.0,0.0
26/05/2023,02:27:12,0.001,0.0,0.0,0.0
26/05/2023,02:28:13,-0.000,0.0,0.0,0.0
26/05/2023,02:29:12,-0.000,0.0,0.0,0.0
26/05/2023,02:30:13,0.001,0.0,0.0,0.0
26/05/2023,02:31:12,0.001,0.0,0.0,0.0
26/05/2023,02:32:13,0.001,0.0,0.0,0.0
26/05/2023,02:33:13,0.001,0.0,0.0,0.0
26/05/2023,02:34:13,0.002,0.0,0.0,0.0
26/05/2023,02:35:13,0.001,0.0,0.0,0.0
26/05/2023,02:36:13,0.001,0.0,0.0,0.0
26/05/2023,02:37:13,0.001,0.0,0.0,0.0
26/05/2023,02:38:12,-0.000,0.0,0.0,0.0
26/05/2023,02:39:13,0.001,0.0,0.0,0.0
26/05/2023,02:40:13,0.001,0.0,0.0,0.0
26/05/2023,02:41:13,0.000,0.0,0.0,0.0
26/05/2023,02:42:13,0.002,0.0,0.0,0.0
26/05/2023,02:43:13,0.002,0.0,0.0,0.0
26/05/2023,02:44:13,0.001,0.0,0.0,0.0
26/05/2023,02:45:13,0.001,0.0,0.0,0.0
26/05/2023,02:46:12,0.001,0.0,0.0,0.0
26/05/2023,02:47:12,0.001,0.0,0.0,0.0
26/05/2023,02:48:13,0.001,0.0,0.0,0.0
26/05/2023,02:49:13,0.001,0.0,0.0,0.0
26/05/2023,02:50:12,0.001,0.0,0.0,0.0
26/05/2023,02:51:13,0.002,0.0,0.0,0.0
26/05/2023,02:52:13,0.000,0.0,0.0,0.0
26/05/2023,02:53:13,0.001,0.0,0.0,0.0
26/05/2023,02:54:13,0.001,0.0,0.0,0.0
26/05/2023,02:55:13,0.001,0.0,0.0,0.0
26/05/2023,02:56:12,0.002,0.0,0.0,0.0
26/05/2023,02:57:13,0.000,0.0,0.0,0.0
26/05/2023,02:58:12,0.001,0.0,0.0,0.0
26/05/2023,02:59:13,-0.000,0.0,0.0,0.0
26/05/2023,03:00:13,0.001,0.0,0.0,0.0
26/05/2023,03:01:12,0.002,0.0,0.0,0.0
26/05/2023,03:02:12,0.001,0.0,0.0,0.0
26/05/2023,03:03:12,0.001,0.0,0.0,0.0
26/05/2023,03:04:13,0.002,0.0,0.0,0.0
26/05/2023,03:05:12,0.001,0.0,0.0,0.0
26/05/2023,03:06:13,0.001,0.0,0.0,0.0
26/05/2023,03:07:13,0.002,0.0,0.0,0.0
26/05/2023,03:08:13,0.001,0.0,0.0,0.0
26/05/2023,03:09:12,0.000,0.0,0.0,0.0
26/05/2023,03:10:12,0.001,0.0,0.0,0.0
26/05/2023,03:11:12,0.001,0.0,0.0,0.0
26/05/2023,03:12:13,0.001,0.0,0.0,0.0
26/05/2023,03:13:13,0.000,0.0,0.0,0.0
26/05/2023,03:14:12,0.001,0.0,0.0,0.0
26/05/2023,03:15:13,0.001,0.0,0.0,0.0
26/05/2023,03:16:12,0.002,0.0,0.0,0.0
26/05/2023,03:17:13,0.001,0.0,0.0,0.0
26/05/2023,03:18:13,0.001,0.0,0.0,0.0
26/05/2023,03:19:13,0.001,0.0,0.0,0.0
26/05/2023,03:20:13,0.001,0.0,0.0,0.0
26/05/2023,03:21:13,0.001,0.0,0.0,0.0
26/05/2023,03:22:13,0.001,0.0,0.0,0.0
26/05/2023,03:23:12,0.000,0.0,0.0,0.0
26/05/2023,03:24:12,0.001,0.0,0.0,0.0
26/05/2023,03:25:12,0.001,0.0,0.0,0.0
26/05/2023,03:26:12,0.001,0.0,0.0,0.0
26/05/2023,03:27:13,0.000,0.0,0.0,0.0
26/05/2023,03:28:13,0.001,0.0,0.0,0.0
26/05/2023,03:29:12,0.001,0.0,0.0,0.0
26/05/2023,03:30:13,0.001,0.0,0.0,0.0
26/05/2023,03:31:12,0.001,0.0,0.0,0.0
26/05/2023,03:32:12,0.001,0.0,0.0,0.0
26/05/2023,03:33:13,0.001,0.0,0.0,0.0
26/05/2023,03:34:13,0.002,0.0,0.0,0.0
26/05/2023,03:35:13,0.002,0.0,0.0,0.0
26/05/2023,03:36:12,0.002,0.0,0.0,0.0
26/05/2023,03:37:13,0.002,0.0,0.0,0.0
26/05/2023,03:38:13,0.002,0.0,0.0,0.0
26/05/2023,03:39:13,0.002,0.0,0.0,0.0
26/05/2023,03:40:12,0.002,0.0,0.0,0.0
26/05/2023,03:41:12,0.002,0.0,0.0,0.0
26/05/2023,03:42:13,0.002,0.0,0.0,0.0
26/05/2023,03:43:13,0.002,0.0,0.0,0.0
26/05/2023,03:44:13,0.002,0.0,0.0,0.0
26/05/2023,03:45:13,0.002,0.0,0.0,0.0
26/05/2023,03:46:13,0.002,0.0,0.0,0.0
26/05/2023,03:47:12,0.002,0.0,0.0,0.0
26/05/2023,03:48:12,0.002,0.0,0.0,0.0
26/05/2023,03:49:13,0.002,0.0,0.0,0.0
26/05/2023,03:50:12,0.002,0.0,0.0,0.0
26/05/2023,03:51:12,0.002,0.0,0.0,0.0
26/05/2023,03:52:13,0.002,0.0,0.0,0.0
26/05/2023,03:53:12,0.003,0.0,0.0,0.0
26/05/2023,03:54:13,0.003,0.0,0.0,0.0
26/05/2023,03:55:13,0.003,0.0,0.0,0.0
26/05/2023,03:56:13,0.005,0.0,0.0,0.0
26/05/2023,03:57:13,0.003,0.0,0.0,0.0
26/05/2023,03:58:13,0.003,0.0,0.0,0.0
26/05/2023,03:59:12,0.003,0.0,0.0,0.0
26/05/2023,04:00:13,0.003,0.0,0.0,0.0
26/05/2023,04:01:12,0.005,0.0,0.0,0.0
26/05/2023,04:02:13,0.003,0.0,0.0,0.0
26/05/2023,04:03:13,0.004,0.0,0.0,0.0
26/05/2023,04:04:13,0.004,0.0,0.0,0.0
26/05/2023,04:05:13,0.004,0.0,0.0,0.0
26/05/2023,04:06:13,0.003,0.0,0.0,0.0
26/05/2023,04:07:13,0.005,0.0,0.0,0.0
26/05/2023,04:08:12,0.006,0.0,0.0,0.0
26/05/2023,04:09:12,0.005,0.0,0.0,0.0
26/05/2023,04:10:13,0.005,0.0,0.0,0.0
26/05/2023,04:11:13,0.005,0.0,0.0,0.0
26/05/2023,04:12:13,0.006,0.0,0.0,0.0
26/05/2023,04:13:13,0.006,0.0,0.0,0.0
26/05/2023,04:14:13,0.006,0.0,0.0,0.0
26/05/2023,04:15:12,0.006,0.0,0.0,0.0
26/05/2023,04:16:13,0.006,0.0,0.0,0.0
26/05/2023,04:17:13,0.006,0.0,0.0,0.0
26/05/2023,04:18:13,0.007,0.0,0.0,0.0
26/05/2023,04:19:13,0.007,0.0,0.001,0.001
26/05/2023,04:20:12,0.008,0.0,0.001,0.0
26/05/2023,04:21:12,0.008,0.0,0.001,0.0
26/05/2023,04:22:13,0.008,0.0,0.001,0.0
26/05/2023,04:23:12,0.008,0.0,0.001,0.0
26/05/2023,04:24:13,0.009,0.0,0.001,0.0
26/05/2023,04:25:13,0.009,0.0,0.001,0.0
26/05/2023,04:26:13,0.010,0.0,0.002,0.001
26/05/2023,04:27:12,0.010,0.0,0.002,0.0
26/05/2023,04:28:12,0.010,0.0,0.002,0.0
26/05/2023,04:29:13,0.011,0.0,0.002,0.0
26/05/2023,04:30:13,0.012,0.0,0.002,0.0
26/05/2023,04:31:13,0.012,0.0,0.002,0.0
26/05/2023,04:32:13,0.013,0.0,0.003,0.001
26/05/2023,04:33:13,0.012,0.0,0.003,0.0
26/05/2023,04:34:13,0.013,0.0,0.003,0.0
26/05/2023,04:35:13,0.014,0.0,0.003,0.0
26/05/2023,04:36:13,0.014,0.0,0.003,0.0
26/05/2023,04:37:13,0.014,0.0,0.004,0.001
26/05/2023,04:38:13,0.014,0.0,0.004,0.0
26/05/2023,04:39:12,0.015,0.0,0.004,0.0
26/05/2023,04:40:11,0.015,0.0,0.004,0.0
26/05/2023,04:41:13,0.017,0.0,0.005,0.001
26/05/2023,04:42:13,0.017,0.0,0.005,0.0
26/05/2023,04:43:13,0.017,0.0,0.005,0.0
26/05/2023,04:44:13,0.018,0.0,0.006,0.001
26/05/2023,04:45:13,0.018,0.0,0.006,0.0
26/05/2023,04:46:12,0.020,0.0,0.006,0.0
26/05/2023,04:47:13,0.020,0.0,0.006,0.0
26/05/2023,04:48:13,0.020,0.0,0.007,0.001
26/05/2023,04:49:12,0.021,0.0,0.007,0.0
26/05/2023,04:50:12,0.022,0.0,0.007,0.0
26/05/2023,04:51:13,0.022,0.0,0.008,0.001
26/05/2023,04:52:12,0.023,0.0,0.008,0.0
26/05/2023,04:53:13,0.023,0.0,0.009,0.001
26/05/2023,04:54:13,0.025,0.0,0.009,0.0
26/05/2023,04:55:13,0.025,0.0,0.009,0.0
26/05/2023,04:56:13,0.026,0.0,0.01,0.001
26/05/2023,04:57:12,0.026,0.0,0.01,0.0
26/05/2023,04:58:13,0.027,0.0,0.011,0.001
26/05/2023,04:59:12,0.029,0.0,0.011,0.0
26/05/2023,05:00:13,0.029,0.0,0.012,0.001
26/05/2023,05:01:13,0.030,0.0,0.012,0.0
26/05/2023,05:02:12,0.030,0.0,0.013,0.001
26/05/2023,05:03:13,0.031,0.0,0.013,0.0
26/05/2023,05:04:13,0.032,0.0,0.014,0.001
26/05/2023,05:05:14,0.034,0.0,0.014,0.0
26/05/2023,05:06:13,0.033,0.0,0.015,0.001
26/05/2023,05:07:13,0.035,0.0,0.015,0.0
26/05/2023,05:08:13,0.035,0.0,0.016,0.001
26/05/2023,05:09:13,0.037,0.0,0.017,0.001
26/05/2023,05:10:13,0.039,0.0,0.017,0.0
26/05/2023,05:11:13,0.039,0.0,0.018,0.001
26/05/2023,05:12:13,0.042,0.0,0.019,0.001
26/05/2023,05:13:13,0.041,0.0,0.019,0.0
26/05/2023,05:14:13,0.042,0.0,0.02,0.001
26/05/2023,05:15:13,0.044,0.0,0.021,0.001
26/05/2023,05:16:13,0.044,0.0,0.021,0.0
26/05/2023,05:17:13,0.046,0.0,0.022,0.001
26/05/2023,05:18:13,0.047,0.0,0.023,0.001
26/05/2023,05:19:13,0.048,0.0,0.024,0.001
26/05/2023,05:20:13,0.050,0.0,0.025,0.001
26/05/2023,05:21:13,0.050,0.0,0.025,0.0
26/05/2023,05:22:13,0.052,0.0,0.026,0.001
26/05/2023,05:23:12,0.053,0.0,0.027,0.001
26/05/2023,05:24:13,0.055,0.0,0.028,0.001
26/05/2023,05:25:13,0.056,0.0,0.029,0.001
26/05/2023,05:26:13,0.057,0.0,0.03,0.001
26/05/2023,05:27:13,0.058,0.0,0.031,0.001
26/05/2023,05:28:13,0.060,0.0,0.032,0.001
26/05/2023,05:29:13,0.063,0.0,0.033,0.001
26/05/2023,05:30:13,0.063,0.0,0.034,0.001
26/05/2023,05:31:13,0.064,0.0,0.035,0.001
26/05/2023,05:32:13,0.067,0.0,0.036,0.001
26/05/2023,05:33:13,0.067,0.0,0.037,0.001
26/05/2023,05:34:12,0.069,0.0,0.038,0.001
26/05/2023,05:35:13,0.071,0.0,0.039,0.001
26/05/2023,05:36:13,0.073,0.0,0.041,0.002
26/05/2023,05:37:13,0.074,0.0,0.042,0.001
26/05/2023,05:38:12,0.075,0.0,0.043,0.001
26/05/2023,05:39:13,0.077,0.0,0.044,0.001
26/05/2023,05:40:13,0.078,0.0,0.046,0.002
26/05/2023,05:41:13,0.079,0.0,0.047,0.001
26/05/2023,05:42:12,0.081,0.0,0.048,0.001
26/05/2023,05:43:13,0.083,0.0,0.05,0.002
26/05/2023,05:44:13,0.084,0.0,0.051,0.001
26/05/2023,05:45:12,0.086,0.0,0.052,0.001
26/05/2023,05:46:13,0.088,0.0,0.054,0.002
26/05/2023,05:47:13,0.090,0.0,0.055,0.001
26/05/2023,05:48:13,0.091,0.0,0.057,0.002
26/05/2023,05:49:13,0.094,0.0,0.058,0.001
26/05/2023,05:50:13,0.097,0.0,0.06,0.002
26/05/2023,05:51:13,0.101,0.0,0.062,0.002
26/05/2023,05:52:13,0.103,0.0,0.063,0.001
26/05/2023,05:53:13,0.105,0.0,0.065,0.002
26/05/2023,05:54:13,0.108,0.0,0.067,0.002
26/05/2023,05:55:12,0.110,0.0,0.069,0.002
26/05/2023,05:56:12,0.113,0.0,0.071,0.002
26/05/2023,05:57:13,0.115,0.0,0.072,0.001
26/05/2023,05:58:13,0.117,0.0,0.074,0.002
26/05/2023,05:59:13,0.120,0.0,0.076,0.002
26/05/2023,06:00:13,0.122,0.0,0.078,0.002
26/05/2023,06:01:13,0.124,0.0,0.08,0.002
26/05/2023,06:02:13,0.127,0.0,0.083,0.003
26/05/2023,06:03:12,0.128,0.0,0.085,0.002
26/05/2023,06:04:13,0.132,0.0,0.087,0.002
26/05/2023,06:05:13,0.136,0.0,0.089,0.002
26/05/2023,06:06:13,0.137,0.0,0.091,0.002
26/05/2023,06:07:13,0.141,0.0,0.094,0.003
26/05/2023,06:08:13,0.143,0.0,0.096,0.002
26/05/2023,06:09:13,0.146,0.0,0.098,0.002
26/05/2023,06:10:13,0.148,0.0,0.101,0.003
26/05/2023,06:11:13,0.153,0.0,0.103,0.002
26/05/2023,06:12:13,0.154,0.0,0.106,0.003
26/05/2023,06:13:13,0.157,0.0,0.108,0.002
26/05/2023,06:14:13,0.160,0.0,0.111,0.003
26/05/2023,06:15:13,0.163,0.0,0.114,0.003
26/05/2023,06:16:13,0.166,0.0,0.117,0.003
26/05/2023,06:17:13,0.169,0.0,0.119,0.002
26/05/2023,06:18:13,0.172,0.0,0.122,0.003
26/05/2023,06:19:12,0.176,0.0,0.125,0.003
26/05/2023,06:20:13,0.179,0.0,0.128,0.003
26/05/2023,06:21:13,0.182,0.0,0.131,0.003
26/05/2023,06:22:13,0.186,0.0,0.134,0.003
26/05/2023,06:23:13,0.189,0.0,0.137,0.003
26/05/2023,06:24:13,0.193,0.0,0.141,0.004
26/05/2023,06:25:13,0.195,0.0,0.144,0.003
26/05/2023,06:26:13,0.200,0.0,0.147,0.003
26/05/2023,06:27:13,0.203,0.0,0.15,0.003
26/05/2023,06:28:13,0.207,0.0,0.154,0.004
26/05/2023,06:29:13,0.210,0.0,0.157,0.003
26/05/2023,06:30:13,0.215,0.0,0.161,0.004
26/05/2023,06:31:13,0.218,1.0,0.164,0.003
26/05/2023,06:32:13,0.222,1.0,0.168,0.004
26/05/2023,06:33:13,0.224,1.0,0.172,0.004
26/05/2023,06:34:13,0.229,1.0,0.175,0.003
26/05/2023,06:35:13,0.232,1.0,0.179,0.004
26/05/2023,06:36:13,0.237,1.0,0.183,0.004
26/05/2023,06:37:13,0.241,1.0,0.187,0.004
26/05/2023,06:38:13,0.220,1.0,0.191,0.004
26/05/2023,06:39:13,0.249,1.0,0.195,0.004
26/05/2023,06:40:13,0.256,1.0,0.199,0.004
26/05/2023,06:41:13,0.259,1.0,0.203,0.004
26/05/2023,06:42:13,0.265,1.0,0.208,0.005
26/05/2023,06:43:13,0.269,1.0,0.212,0.004
26/05/2023,06:44:13,0.240,1.0,0.217,0.005
26/05/2023,06:45:13,0.243,1.0,0.221,0.004
26/05/2023,06:46:13,0.258,1.0,0.225,0.004
26/05/2023,06:47:13,0.283,1.0,0.23,0.005
26/05/2023,06:48:13,0.249,1.0,0.234,0.004
26/05/2023,06:49:13,0.261,1.0,0.238,0.004
26/05/2023,06:50:13,0.255,1.0,0.243,0.005
26/05/2023,06:51:12,0.266,1.0,0.247,0.004
26/05/2023,06:52:13,0.307,1.0,0.252,0.005
26/05/2023,06:53:13,0.317,1.0,0.257,0.005
26/05/2023,06:54:13,0.268,1.0,0.262,0.005
26/05/2023,06:55:13,0.278,1.0,0.267,0.005
26/05/2023,06:56:13,0.327,1.0,0.272,0.005
26/05/2023,06:57:13,0.319,1.0,0.277,0.005
26/05/2023,06:58:13,0.341,1.0,0.283,0.006
26/05/2023,06:59:13,0.290,1.0,0.288,0.005
26/05/2023,07:00:13,0.330,1.0,0.293,0.005
26/05/2023,07:01:13,0.361,1.0,0.299,0.006
26/05/2023,07:02:13,0.323,1.0,0.304,0.005
26/05/2023,07:03:13,0.365,1.0,0.31,0.006
26/05/2023,07:04:13,0.314,1.0,0.316,0.006
26/05/2023,07:05:13,0.382,1.0,0.322,0.006
26/05/2023,07:06:13,0.367,1.0,0.328,0.006
26/05/2023,07:07:13,0.333,1.0,0.334,0.006
26/05/2023,07:08:13,0.374,1.0,0.34,0.006
26/05/2023,07:09:14,0.395,1.0,0.347,0.007
26/05/2023,07:10:13,0.410,1.0,0.354,0.007
26/05/2023,07:11:13,0.430,1.0,0.361,0.007
26/05/2023,07:12:13,0.433,1.0,0.367,0.006
26/05/2023,07:13:13,0.426,1.0,0.375,0.008
26/05/2023,07:14:13,0.447,1.0,0.382,0.007
26/05/2023,07:15:13,0.455,1.0,0.389,0.007
26/05/2023,07:16:13,0.447,1.0,0.396,0.007
26/05/2023,07:17:13,0.459,1.0,0.404,0.008
26/05/2023,07:18:13,0.432,1.0,0.411,0.007
26/05/2023,07:19:13,0.477,1.0,0.419,0.008
26/05/2023,07:20:13,0.443,1.0,0.427,0.008
26/05/2023,07:21:13,0.483,1.0,0.434,0.007
26/05/2023,07:22:13,0.490,1.0,0.442,0.008
26/05/2023,07:23:13,0.497,1.0,0.451,0.009
26/05/2023,07:24:13,0.502,1.0,0.459,0.008
26/05/2023,07:25:13,0.483,1.0,0.467,0.008
26/05/2023,07:26:13,0.508,1.0,0.475,0.008
26/05/2023,07:27:13,0.518,1.0,0.484,0.009
26/05/2023,07:28:13,0.525,1.0,0.493,0.009
26/05/2023,07:29:13,0.533,1.0,0.501,0.008
26/05/2023,07:30:13,0.540,1.0,0.51,0.009
26/05/2023,07:31:13,0.545,1.0,0.52,0.01
26/05/2023,07:32:13,0.553,1.0,0.529,0.009
26/05/2023,07:33:13,0.561,1.0,0.538,0.009
26/05/2023,07:34:13,0.565,1.0,0.548,0.01
26/05/2023,07:35:13,0.572,1.0,0.557,0.009
26/05/2023,07:36:13,0.575,1.0,0.566,0.009
26/05/2023,07:37:13,0.584,1.0,0.576,0.01
26/05/2023,07:38:13,0.593,1.0,0.586,0.01
26/05/2023,07:39:13,0.600,1.0,0.595,0.009
26/05/2023,07:40:13,0.602,1.0,0.605,0.01
26/05/2023,07:41:13,0.543,1.0,0.615,0.01
26/05/2023,07:42:13,0.615,1.0,0.625,0.01
26/05/2023,07:43:13,0.623,1.0,0.636,0.011
26/05/2023,07:44:13,0.636,1.0,0.646,0.01
26/05/2023,07:45:13,0.641,1.0,0.657,0.011
26/05/2023,07:46:13,0.647,1.0,0.668,0.011
26/05/2023,07:47:13,0.651,1.0,0.678,0.01
26/05/2023,07:48:13,0.659,2.0,0.689,0.011
26/05/2023,07:49:14,0.667,2.0,0.701,0.012
26/05/2023,07:50:13,0.675,2.0,0.712,0.011
26/05/2023,07:51:13,0.680,2.0,0.723,0.011
26/05/2023,07:52:13,0.687,2.0,0.734,0.011
26/05/2023,07:53:13,0.693,2.0,0.746,0.012
26/05/2023,07:54:13,0.702,2.0,0.758,0.012
26/05/2023,07:55:14,0.708,2.0,0.77,0.012
26/05/2023,07:56:13,0.716,2.0,0.781,0.011
26/05/2023,07:57:13,0.721,2.0,0.793,0.012
26/05/2023,07:58:13,0.728,2.0,0.805,0.012
26/05/2023,07:59:13,0.736,2.0,0.818,0.013
26/05/2023,08:00:13,0.742,2.0,0.83,0.012
26/05/2023,08:01:14,0.752,2.0,0.843,0.013
26/05/2023,08:02:13,0.763,2.0,0.855,0.012
26/05/2023,08:03:13,0.769,2.0,0.867,0.012
26/05/2023,08:04:13,0.777,2.0,0.88,0.013
26/05/2023,08:05:13,0.783,2.0,0.893,0.013
26/05/2023,08:06:13,0.792,2.0,0.907,0.014
26/05/2023,08:07:13,0.799,2.0,0.92,0.013
26/05/2023,08:08:13,0.802,2.0,0.933,0.013
26/05/2023,08:09:12,0.807,2.0,0.946,0.013
26/05/2023,08:10:14,0.815,2.0,0.96,0.014
26/05/2023,08:11:14,0.829,2.0,0.974,0.014
26/05/2023,08:12:13,0.831,2.0,0.988,0.014
26/05/2023,08:13:13,0.841,2.0,1.002,0.014
26/05/2023,08:14:13,0.852,2.0,1.016,0.014
26/05/2023,08:15:13,0.858,2.0,1.03,0.014
26/05/2023,08:16:13,0.868,2.0,1.044,0.014
26/05/2023,08:17:13,0.874,2.0,1.059,0.015
26/05/2023,08:18:13,0.882,2.0,1.074,0.015
26/05/2023,08:19:13,0.892,2.0,1.088,0.014
26/05/2023,08:20:13,0.899,2.0,1.103,0.015
26/05/2023,08:21:13,0.905,2.0,1.119,0.016
26/05/2023,08:22:13,0.916,2.0,1.134,0.015
26/05/2023,08:23:14,0.925,2.0,1.149,0.015
26/05/2023,08:24:13,0.932,2.0,1.164,0.015
26/05/2023,08:25:13,0.940,2.0,1.18,0.016
26/05/2023,08:26:13,0.949,2.0,1.195,0.015
26/05/2023,08:27:13,0.959,2.0,1.211,0.016
26/05/2023,08:28:13,0.963,2.0,1.228,0.017
26/05/2023,08:29:14,0.975,2.0,1.244,0.016
26/05/2023,08:30:13,0.980,2.0,1.26,0.016
26/05/2023,08:31:13,0.995,2.0,1.277,0.017
26/05/2023,08:32:14,0.997,2.0,1.293,0.016
26/05/2023,08:33:13,1.007,2.0,1.31,0.017
26/05/2023,08:34:13,1.021,2.0,1.326,0.016
26/05/2023,08:35:13,1.030,2.0,1.344,0.018
26/05/2023,08:36:13,1.038,2.0,1.361,0.017
26/05/2023,08:37:13,1.047,2.0,1.379,0.018
26/05/2023,08:38:15,1.053,2.0,1.397,0.018
26/05/2023,08:39:13,1.062,2.0,1.414,0.017
26/05/2023,08:40:14,1.071,2.0,1.432,0.018
26/05/2023,08:41:14,1.080,2.0,1.45,0.018
26/05/2023,08:42:13,1.089,3.0,1.468,0.018
26/05/2023,08:43:13,1.098,3.0,1.486,0.018
26/05/2023,08:44:14,1.107,3.0,1.504,0.018
26/05/2023,08:45:13,1.116,3.0,1.522,0.018
26/05/2023,08:46:13,1.126,3.0,1.541,0.019
26/05/2023,08:47:13,1.134,3.0,1.56,0.019
26/05/2023,08:48:13,1.141,3.0,1.579,0.019
26/05/2023,08:49:13,1.150,3.0,1.598,0.019
26/05/2023,08:50:13,1.159,3.0,1.617,0.019
26/05/2023,08:51:13,1.166,3.0,1.636,0.019
26/05/2023,08:52:13,1.176,3.0,1.656,0.02
26/05/2023,08:53:13,1.184,3.0,1.676,0.02
26/05/2023,08:54:14,1.192,3.0,1.696,0.02
26/05/2023,08:55:14,1.199,3.0,1.716,0.02
26/05/2023,08:56:13,1.208,3.0,1.735,0.019
26/05/2023,08:57:13,1.215,3.0,1.755,0.02
26/05/2023,08:58:13,1.223,3.0,1.776,0.021
26/05/2023,08:59:13,1.232,3.0,1.797,0.021
26/05/2023,09:00:14,1.239,3.0,1.818,0.021
26/05/2023,09:01:13,1.249,3.0,1.838,0.02
26/05/2023,09:02:13,1.253,3.0,1.859,0.021
26/05/2023,09:03:13,1.266,3.0,1.88,0.021
26/05/2023,09:04:13,1.276,3.0,1.901,0.021
26/05/2023,09:05:13,1.283,3.0,1.922,0.021
26/05/2023,09:06:14,1.292,3.0,1.944,0.022
26/05/2023,09:07:13,1.298,3.0,1.965,0.021
26/05/2023,09:08:14,1.308,3.0,1.988,0.023
26/05/2023,09:09:13,1.315,3.0,2.009,0.021
26/05/2023,09:10:13,1.325,3.0,2.031,0.022
26/05/2023,09:11:13,1.336,3.0,2.054,0.023
26/05/2023,09:12:13,1.343,3.0,2.076,0.022
26/05/2023,09:13:13,1.349,3.0,2.098,0.022
26/05/2023,09:14:13,1.360,3.0,2.121,0.023
26/05/2023,09:15:14,1.366,3.0,2.144,0.023
26/05/2023,09:16:13,1.374,3.0,2.166,0.022
26/05/2023,09:17:13,1.384,3.0,2.189,0.023
26/05/2023,09:18:13,1.391,3.0,2.212,0.023
26/05/2023,09:19:13,1.399,3.0,2.235,0.023
26/05/2023,09:20:13,1.410,3.0,2.259,0.024
26/05/2023,09:21:14,1.421,3.0,2.283,0.024
26/05/2023,09:22:13,1.424,3.0,2.306,0.023
26/05/2023,09:23:13,1.436,3.0,2.33,0.024
26/05/2023,09:24:13,1.445,3.0,2.354,0.024
26/05/2023,09:25:14,1.453,3.0,2.378,0.024
26/05/2023,09:26:14,1.459,3.0,2.403,0.025
26/05/2023,09:27:13,1.467,3.0,2.426,0.023
26/05/2023,09:28:13,1.477,3.0,2.452,0.026
26/05/2023,09:29:13,1.485,3.0,2.476,0.024
26/05/2023,09:30:13,1.498,3.0,2.501,0.025
26/05/2023,09:31:14,1.504,3.0,2.526,0.025
26/05/2023,09:32:13,1.509,3.0,2.551,0.025
26/05/2023,09:33:13,1.520,3.0,2.577,0.026
26/05/2023,09:34:13,1.527,4.0,2.602,0.025
26/05/2023,09:35:13,1.539,4.0,2.628,0.026
26/05/2023,09:36:13,1.540,4.0,2.653,0.025
26/05/2023,09:37:13,1.553,4.0,2.679,0.026
26/05/2023,09:38:13,1.559,4.0,2.705,0.026
26/05/2023,09:39:13,1.569,4.0,2.731,0.026
26/05/2023,09:40:13,1.581,4.0,2.756,0.025
26/05/2023,09:41:13,1.577,4.0,2.783,0.027
26/05/2023,09:42:13,1.592,4.0,2.81,0.027
26/05/2023,09:43:13,1.599,4.0,2.836,0.026
26/05/2023,09:44:13,1.608,4.0,2.863,0.027
26/05/2023,09:45:13,1.618,4.0,2.89,0.027
26/05/2023,09:46:14,1.625,4.0,2.917,0.027
26/05/2023,09:47:14,1.635,4.0,2.944,0.027
26/05/2023,09:48:13,1.641,4.0,2.972,0.028
26/05/2023,09:49:13,1.645,4.0,2.999,0.027
26/05/2023,09:50:14,1.663,4.0,3.027,0.028
26/05/2023,09:51:13,1.671,4.0,3.054,0.027
26/05/2023,09:52:13,1.683,4.0,3.081,0.027
26/05/2023,09:53:13,1.696,4.0,3.111,0.03
26/05/2023,09:54:14,1.696,4.0,3.139,0.028
26/05/2023,09:55:13,1.712,4.0,3.166,0.027
26/05/2023,09:56:13,1.715,4.0,3.195,0.029
26/05/2023,09:57:13,1.726,4.0,3.225,0.03
26/05/2023,09:58:13,1.730,4.0,3.253,0.028